GW4911 Weather Reports


time (UTC)temp
F
wind
direction
speed
knots
gust
knots
rain 1hr
in
rain 24hr
in
rain mn
in
humidity
%
barometer
mb
20260503003810 63 237 1.7 6.1 0.00 0.00 0.00 39 1009.5
20260503003306 63 262 1.7 3.5 0.00 0.00 0.00 42 1009.4
20260503002803 63 253 0.9 1.7 0.00 0.00 0.00 41 1009.5
20260503002300 63 241 0.0 0.9 0.00 0.00 0.00 40 1009.6
20260503001756 63 289 2.6 2.6 0.00 0.00 0.00 39 1009.8
20260503001253 62 297 1.7 6.1 0.00 0.00 0.00 41 1009.8
20260503000751 62 303 2.6 3.5 0.00 0.00 0.00 41 1009.9
20260503000248 63 175 0.9 1.7 0.00 0.00 0.00 40 1009.9
20260502235745 63 241 0.0 0.9 0.00 0.00 0.00 40 1010.0
20260502235243 63 249 0.0 0.9 0.00 0.00 0.00 39 1009.9
20260502234738 64 106 1.7 1.7 0.00 0.00 0.00 39 1010.0
20260502234236 64 228 0.0 0.0 0.00 0.00 0.00 40 1009.9
20260502233732 64 267 1.7 2.6 0.00 0.00 0.00 39 1010.0
20260502233229 64 232 1.7 2.6 0.00 0.00 0.00 39 1009.9
20260502232724 64 269 3.5 3.5 0.00 0.00 0.00 38 1010.3
20260502232222 64 293 1.7 3.5 0.00 0.00 0.00 40 1010.2
20260502231718 63 218 6.1 8.7 0.00 0.00 0.00 38 1010.5
20260502231216 63 246 2.6 7.8 0.00 0.00 0.00 38 1010.4
20260502230715 63 278 4.3 7.0 0.00 0.00 0.00 37 1010.5
20260502230213 63 249 0.9 1.7 0.00 0.00 0.00 38 1010.5
20260502225708 63 254 0.9 12.2 0.00 0.00 0.00 37 1010.5
20260502225205 63 261 1.7 2.6 0.00 0.00 0.00 38 1010.6
20260502224701 63 226 2.6 5.2 0.00 0.00 0.00 37 1010.6
20260502224159 63 194 0.9 0.9 0.00 0.00 0.00 38 1010.7
20260502223656 63 232 2.6 5.2 0.00 0.00 0.00 37 1010.7
20260502223154 63 214 0.0 1.7 0.00 0.00 0.00 39 1010.8
20260502222652 63 233 5.2 7.8 0.00 0.00 0.00 36 1010.7
20260502222148 63 225 0.0 1.7 0.00 0.00 0.00 40 1010.6
20260502221643 63 259 0.0 2.6 0.00 0.00 0.00 38 1010.7
20260502221141 64 243 1.7 5.2 0.00 0.00 0.00 38 1010.6
20260502220637 64 238 2.6 5.2 0.00 0.00 0.00 38 1010.8
20260502220133 64 312 0.9 5.2 0.00 0.00 0.00 39 1010.6
20260502215631 64 220 3.5 6.1 0.00 0.00 0.00 36 1010.8
20260502215127 64 210 0.0 3.5 0.00 0.00 0.00 38 1011.0
20260502214625 63 220 0.0 2.6 0.00 0.00 0.00 38 1011.0
20260502214122 64 218 0.0 2.6 0.00 0.00 0.00 36 1011.1
20260502213619 63 231 1.7 7.8 0.00 0.00 0.00 37 1011.2
20260502213116 63 263 4.3 7.0 0.00 0.00 0.00 37 1011.2
20260502212615 63 258 4.3 6.1 0.00 0.00 0.00 37 1011.2
20260502212113 64 252 1.7 3.5 0.00 0.00 0.00 37 1011.5
20260502211608 63 294 0.9 6.1 0.00 0.00 0.00 39 1011.7
20260502211105 64 244 1.7 7.0 0.00 0.00 0.00 35 1011.7
20260502210603 65 302 2.6 6.1 0.00 0.00 0.00 36 1011.7
20260502210059 65 256 4.3 9.6 0.00 0.00 0.00 34 1011.9
20260502205555 65 264 1.7 5.2 0.00 0.00 0.00 34 1011.7
20260502205053 63 227 3.5 8.7 0.00 0.00 0.00 34 1012.2
20260502204549 63 119 2.6 7.8 0.00 0.00 0.00 35 1012.0
20260502204047 64 251 2.6 9.6 0.00 0.00 0.00 35 1012.3
20260502203544 64 213 7.0 9.6 0.00 0.00 0.00 33 1012.5
20260502203041 64 256 3.5 6.1 0.00 0.00 0.00 34 1012.3
20260502202537 64 290 6.1 8.7 0.00 0.00 0.00 34 1012.6
20260502202036 64 241 5.2 7.8 0.00 0.00 0.00 34 1012.9
20260502201531 64 237 3.5 7.0 0.00 0.00 0.00 36 1012.7
20260502201029 64 209 3.5 6.1 0.00 0.00 0.00 35 1012.8
20260502200524 64 220 4.3 7.8 0.00 0.00 0.00 36 1012.9
20260502200022 63 257 4.3 6.1 0.00 0.00 0.00 35 1013.0
20260502195520 62 203 1.7 5.2 0.00 0.00 0.00 35 1013.1
20260502195015 62 204 2.6 3.5 0.00 0.00 0.00 36 1013.2
20260502194512 62 294 5.2 7.0 0.00 0.00 0.00 34 1013.3
20260502194008 62 247 6.1 12.2 0.00 0.00 0.00 36 1013.3
20260502193506 62 246 3.5 9.6 0.00 0.00 0.00 35 1013.5
20260502193001 62 241 7.8 11.3 0.00 0.00 0.00 35 1013.5
20260502192458 62 186 2.6 9.6 0.00 0.00 0.00 38 1013.7
20260502191955 61 132 6.1 7.8 0.00 0.00 0.00 35 1013.7
20260502191452 61 194 5.2 8.7 0.00 0.00 0.00 36 1014.0
20260502190950 60 132 4.3 6.1 0.00 0.00 0.00 36 1014.2
20260502190447 61 151 3.5 7.8 0.00 0.00 0.00 35 1014.2
20260502185943 62 192 5.2 8.7 0.00 0.00 0.00 35 1014.0
20260502185439 62 146 2.6 7.0 0.00 0.00 0.00 36 1014.2
20260502184936 61 162 2.6 5.2 0.00 0.00 0.00 39 1014.4
20260502184431 61 220 1.7 5.2 0.00 0.00 0.00 37 1014.5
20260502183928 60 263 3.5 6.1 0.00 0.00 0.00 35 1014.7
20260502183424 60 279 2.6 7.8 0.00 0.00 0.00 36 1014.7
20260502182920 60 228 4.3 8.7 0.00 0.00 0.00 36 1014.5
20260502182416 60 217 1.7 3.5 0.00 0.00 0.00 37 1014.6
20260502181912 59 164 2.6 7.0 0.00 0.00 0.00 35 1014.8
20260502181411 59 254 1.7 8.7 0.00 0.00 0.00 38 1015.0
20260502180909 60 234 8.7 9.6 0.00 0.00 0.00 37 1015.1
20260502180406 59 107 1.7 7.8 0.00 0.00 0.00 39 1015.1
20260502170324 58 291 3.5 6.1 0.00 0.00 0.00 39 1015.9
20260502164312 57 329 3.5 3.5 0.00 0.00 0.00 38 1016.3
20260502163808 57 205 0.9 6.1 0.00 0.00 0.00 41 1016.3
20260502163304 57 235 3.5 5.2 0.00 0.00 0.00 38 1016.5
20260502162801 57 218 3.5 7.0 0.00 0.00 0.00 37 1016.4
20260502162258 56 28 3.5 7.0 0.00 0.00 0.00 39 1016.4
20260502161755 56 264 1.7 5.2 0.00 0.00 0.00 38 1016.6
20260502161251 56 291 2.6 5.2 0.00 0.00 0.00 37 1016.6
20260502160749 55 291 3.5 6.1 0.00 0.00 0.00 37 1016.7
20260502160248 56 197 2.6 6.1 0.00 0.00 0.00 39 1016.9
20260502152217 54 317 3.5 5.2 0.00 0.00 0.00 39 1017.0
20260502151715 54 300 3.5 6.1 0.00 0.00 0.00 39 1017.1
20260502151212 53 257 2.6 8.7 0.00 0.00 0.00 43 1017.3
20260502150709 53 224 2.6 8.7 0.00 0.00 0.00 43 1017.3
20260502150206 53 209 3.5 7.8 0.00 0.00 0.00 44 1017.2
20260502140129 50 306 1.7 2.6 0.00 0.00 0.00 50 1017.9
20260502130554 44 264 0.9 2.6 0.00 0.00 0.00 60 1018.0
20260502123538 43 327 0.9 1.7 0.00 0.00 0.00 65 1017.9
20260502123034 43 240 0.9 1.7 0.00 0.00 0.00 65 1017.7
20260502122531 43 230 0.9 0.9 0.00 0.00 0.00 64 1017.9
20260502122028 43 213 0.9 1.7 0.00 0.00 0.00 65 1017.7
20260502121525 43 241 0.9 1.7 0.00 0.00 0.00 64 1017.7
20260502121023 44 210 0.0 0.0 0.00 0.00 0.00 64 1017.7
20260502120519 43 235 0.0 0.9 0.00 0.00 0.00 63 1017.8
20260502115514 41 198 0.0 0.0 0.00 0.00 0.00 67 1017.7
20260502115009 39 198 0.0 0.0 0.00 0.00 0.00 72 1017.9
20260502114506 39 198 0.0 0.0 0.00 0.00 0.00 72 1017.7
20260502114003 37 223 0.0 0.9 0.00 0.00 0.00 76 1017.8
20260502113500 37 202 0.0 0.0 0.00 0.00 0.00 76 1017.6
20260502112959 36 203 0.0 0.0 0.00 0.00 0.00 77 1017.6
20260502112456 35 202 0.0 0.0 0.00 0.00 0.00 78 1017.5
20260502111954 35 202 0.0 0.0 0.00 0.00 0.00 78 1017.6
20260502111451 35 202 0.0 0.0 0.00 0.00 0.00 78 1017.6
20260502110948 35 202 0.0 0.0 0.00 0.00 0.00 76 1017.6
20260502110446 36 202 0.0 0.0 0.00 0.00 0.00 76 1017.5
20260502105943 35 202 0.0 0.0 0.00 0.00 0.00 77 1017.3
20260502105440 35 203 0.0 0.0 0.00 0.00 0.00 77 1017.5
20260502104938 36 203 0.0 0.0 0.00 0.00 0.00 75 1017.5
20260502104435 36 203 0.0 0.0 0.00 0.00 0.00 75 1017.3
20260502103932 37 203 0.0 0.0 0.00 0.00 0.00 74 1017.5
20260502103430 36 203 0.0 0.0 0.00 0.00 0.00 75 1017.6
20260502102927 35 205 0.0 0.0 0.00 0.00 0.00 76 1017.8
20260502102423 36 205 0.0 0.0 0.00 0.00 0.00 75 1017.5
20260502101920 36 205 0.0 0.0 0.00 0.00 0.00 75 1017.5
20260502101419 35 207 0.0 0.0 0.00 0.00 0.00 78 1017.5
20260502100917 35 208 0.0 0.0 0.00 0.00 0.00 79 1017.7
20260502100416 35 208 0.0 0.0 0.00 0.00 0.00 80 1017.7
20260502091349 35 224 0.0 0.0 0.00 0.00 0.00 76 1017.7
20260502090847 34 224 0.0 0.0 0.00 0.00 0.00 76 1017.3
20260502090344 35 224 0.0 0.0 0.00 0.00 0.00 76 1017.2
20260502071239 40 231 0.0 0.9 0.00 0.00 0.00 62 1017.6
20260502070737 39 240 0.0 0.0 0.00 0.00 0.00 64 1017.6
20260502070234 39 250 0.0 0.0 0.00 0.00 0.00 64 1017.6
20260502065733 39 264 0.0 0.9 0.00 0.00 0.00 63 1017.7
20260502065230 40 213 0.0 0.0 0.00 0.00 0.00 63 1017.7
20260502064729 40 237 0.0 0.0 0.00 0.00 0.00 61 1017.8
20260502064226 40 223 0.0 0.0 0.00 0.00 0.00 61 1017.8
20260502063723 40 222 0.0 0.0 0.00 0.00 0.00 62 1017.8
20260502063221 41 226 0.0 1.7 0.00 0.00 0.00 59 1017.8
20260502062718 41 226 0.0 0.9 0.00 0.00 0.00 60 1017.7
20260502062216 40 265 0.0 0.0 0.00 0.00 0.00 61 1017.8
20260502061714 41 265 0.0 0.0 0.00 0.00 0.00 60 1017.8
20260502061211 41 247 0.0 0.0 0.00 0.00 0.00 60 1017.7
20260502060706 41 222 0.0 0.0 0.00 0.00 0.00 60 1017.7
20260502060203 41 235 0.0 0.0 0.00 0.00 0.00 59 1017.8
20260502055701 41 270 0.0 0.0 0.00 0.00 0.00 59 1017.9
20260502055158 41 234 0.0 0.9 0.00 0.00 0.00 59 1017.8
20260502054657 40 249 0.0 0.0 0.00 0.00 0.00 61 1017.9
20260502054154 40 231 0.0 0.0 0.00 0.00 0.00 61 1017.9
20260502053651 40 230 0.0 0.9 0.00 0.00 0.00 61 1017.9
20260502053148 40 238 0.0 0.0 0.00 0.00 0.00 63 1017.9
20260502052647 40 238 0.0 0.9 0.00 0.00 0.00 62 1018.1
20260502052144 39 234 0.0 0.0 0.00 0.00 0.00 65 1017.9
20260502051642 39 234 0.0 0.0 0.00 0.00 0.00 63 1017.9
20260502051140 39 234 0.0 0.0 0.00 0.00 0.00 64 1017.9
20260502050636 39 249 0.0 0.9 0.00 0.00 0.00 62 1017.9
20260502050133 39 230 0.0 0.0 0.00 0.00 0.00 65 1017.8
20260502045630 39 230 0.0 0.0 0.00 0.00 0.00 66 1017.9
20260502045127 38 230 0.0 0.0 0.00 0.00 0.00 66 1017.8
20260502044623 38 230 0.0 0.0 0.00 0.00 0.00 66 1018.0
20260502044120 39 230 0.0 0.0 0.00 0.00 0.00 65 1017.8
20260502043618 39 230 0.0 0.0 0.00 0.00 0.00 65 1017.8
20260502043114 40 230 0.0 0.0 0.00 0.00 0.00 63 1017.9
20260502042608 39 230 0.0 0.0 0.00 0.00 0.00 64 1017.9
20260502042106 39 230 0.0 0.0 0.00 0.00 0.00 64 1018.0
20260502041604 39 230 0.0 0.0 0.00 0.00 0.00 64 1017.9
20260502041100 40 230 0.0 0.0 0.00 0.00 0.00 64 1017.8
20260502040557 40 230 0.0 0.0 0.00 0.00 0.00 65 1017.7
20260502040055 41 231 0.0 0.0 0.00 0.00 0.00 61 1017.8
20260502035550 41 231 0.0 0.0 0.00 0.00 0.00 66 1017.9
20260502035048 41 302 0.0 0.0 0.00 0.00 0.00 61 1017.9
20260502034545 41 200 0.0 0.0 0.00 0.00 0.00 63 1018.0
20260502034044 41 200 0.0 0.0 0.00 0.00 0.00 61 1018.0
20260502033542 42 200 0.0 0.0 0.00 0.00 0.00 63 1017.9
20260502033039 42 215 0.9 0.9 0.00 0.00 0.00 62 1017.9
20260502032534 41 216 0.0 0.0 0.00 0.00 0.00 61 1017.8
20260502032031 42 216 0.0 0.0 0.00 0.00 0.00 59 1017.9
20260502031529 42 216 0.0 0.0 0.00 0.00 0.00 61 1017.9
20260502031027 43 216 0.0 0.0 0.00 0.00 0.00 54 1017.9
20260502030526 43 216 0.0 0.0 0.00 0.00 0.00 55 1018.1
20260502030023 43 216 0.0 0.0 0.00 0.00 0.00 58 1017.8
20260502025520 43 216 0.0 0.0 0.00 0.00 0.00 54 1018.0
20260502025018 43 216 0.0 0.0 0.00 0.00 0.00 56 1018.0
20260502024515 44 216 0.0 0.0 0.00 0.00 0.00 55 1017.8
20260502024014 43 276 0.0 0.0 0.00 0.00 0.00 55 1018.0
20260502023511 44 276 0.0 0.0 0.00 0.00 0.00 51 1017.8
20260502023008 44 276 0.0 0.0 0.00 0.00 0.00 51 1017.9
20260502022505 45 276 0.0 0.0 0.00 0.00 0.00 49 1017.8
20260502022002 44 276 0.0 0.0 0.00 0.00 0.00 50 1017.9
20260502021459 43 276 0.0 0.0 0.00 0.00 0.00 52 1017.8
20260502020956 44 276 0.0 0.0 0.00 0.00 0.00 51 1017.6
20260502020454 44 276 0.0 0.0 0.00 0.00 0.00 50 1017.6
20260502015950 45 276 0.0 0.0 0.00 0.00 0.00 49 1017.6
20260502015448 46 276 0.0 0.0 0.00 0.00 0.00 46 1017.6
20260502014944 46 276 0.0 0.0 0.00 0.00 0.00 44 1017.3
20260502014441 47 283 0.0 0.0 0.00 0.00 0.00 47 1017.6
20260502013938 47 283 0.0 0.0 0.00 0.00 0.00 49 1017.5
20260502013433 48 284 0.0 0.0 0.00 0.00 0.00 47 1017.5
20260502012930 48 284 0.0 0.0 0.00 0.00 0.00 43 1017.3
20260502012428 49 284 0.0 0.0 0.00 0.00 0.00 43 1017.2
20260502011925 49 288 0.0 0.0 0.00 0.00 0.00 41 1017.3
20260502011421 49 288 0.0 0.0 0.00 0.00 0.00 40 1017.2
20260502010919 50 295 0.0 0.0 0.00 0.00 0.00 40 1017.2
20260502010415 50 295 0.0 0.0 0.00 0.00 0.00 37 1017.1
20260502005911 50 295 0.0 0.0 0.00 0.00 0.00 37 1017.2
20260502005410 50 295 0.0 0.0 0.00 0.00 0.00 38 1017.3
20260502004907 51 296 0.0 0.0 0.00 0.00 0.00 38 1017.3
20260502004403 51 295 0.0 0.0 0.00 0.00 0.00 37 1017.5